Location: Bern�tre
(50.1974°N, 2.0915°E)
Time: 05:21:55
(UTC+00:00)

SPOT 1/Viking Rocket - Pass Details

Date: 18 September 2020
Orbit: 777 x 794 km, 98.5° (Epoch: 29 October)

Event Time Altitude Azimuth Distance (km) Brightness Sun altitude
Exits shadow 21:14:23 69° 294° (WNW) 842 3.7 -29.1°
Drops below altitude 10° 21:19:10 10° 342° (NNW) 2,352 6.8 -29.7°
Sets 21:21:31 0° 344° (NNW) 3,283 7.7 -29.9°
